Terug naar catalogus

COSMOS 1959

ActiefNavigatiePO
NORAD 19324·PAYLOAD·🇷🇺 Russia

Gelanceerd Jul 18, 1988 vanaf Plesetsk Cosmodrome

Loading…

Volgende Passages (komende 24 uur)

TLE

VersSource: Space-Track

Epoch: Sep 14, 2026, 21:48 UTC

1 19324U 88062A   26257.90864380  .00000041  00000-0  26378-4 0  9998
2 19324  82.9482  56.4013 0033021 227.6407 296.4295 13.76360560916044

Volg COSMOS 1959 in realtime met AllMySat

Download on the App Store